Погода в Славском

Украина / Львовская область     48°50′55″N   23°26′50″E
темп.,
°C
ветер,
м/с
пор.,
м/с
влажн.,
%
обл.,
%
осадки,
мм/ч
давл.,
гПа
погр.,
м
16 сентября, чт
чт1600:00+12юв2286100 0.0 101824
03:00+11ююв228639 0.0 101823
06:00+11ююв228535 0.0 101730
09:00+16ю247181 0.0 1017126
12:00+20ююз3652100 0.0 1016853
15:00+22ююз4746100 0.0 10151341
18:00+19ююз4760100 0.0 1015839
21:00+15ю2578100 0.1 1015107
17 сентября, пт
пт1700:00+14ю259399 0.9 1014113
03:00+13ю359477 1.1 1013102
06:00+12ю2396100 0.0 101250
09:00+14ю2492100 0.0 1011202
12:00+14ю1398100 6.0 1009236
15:00+13ююв2699100 13.6 1007329
18:00+14юз2697100 1.6 1006637
21:00+11зсз1498100 5.6 1009367
18 сентября, сб
сб1800:00+10зсз1297100 0.7 1010221
03:00+10зсз1291100 0.7 101148
06:00+9зсз1194100 0.2 101125
09:00+10з1389100 0.2 1011323
12:00+12з2475100 0.3 1011945
15:00+11юз1482100 0.4 1012406
18:00+10юз1388100 0.2 1012248
21:00+9зюз1193100 0.3 101240
19 сентября, вс
вс1900:00+7юз119789 0.2 101216
03:00+8ююз2396100 0.3 1012149
06:00+8юз2696100 0.4 1011404
09:00+7зсз1399100 4.4 1011248
12:00+5ссз3398100 2.9 1014295
15:00+4сз1394100 3.6 1015443
18:00+5сз1394100 0.1 1014787
21:00+3сз1497100 0.3 1015691
20 сентября, пн
пн2000:00+3з1597100 0.1 1015678
03:00+3з1498100 0.1 1015544
06:00+3зсз1398100 0.1 1015397
09:00+4з1398100 0.3 1015423
12:00+4зсз1597100 0.2 1016601
15:00+4зсз1596100 0.3 1017770
18:00+4зсз1697100 0.2 1018831
21:00+3сз1494100 0.3 1019642